Regional Weather Roundup
Issued by NWS

Home | Current Version | Previous Version | Graphics & Text | Print | Product List | Glossary Off
Versions: 1 2 3 4 5 6 7 8 9 10 11 12 13 14 15 16 17 18 19 20 21 22 23 24 25 26 27 28 29 30 31 32 33 34 35 36 37 38 39 40 41 42 43 44 45 46 47 48 49 50

000
ASUS43 KDMX 272308
RWRIA

WEATHER ROUNDUP FOR IOWA
NATIONAL WEATHER SERVICE DES MOINES IA
600 PM CDT WED JUL 27 2016

NOTE: "FAIR" INDICATES FEW OR NO CLOUDS BELOW 12,000 FEET WITH NO
SIGNIFICANT WEATHER AND/OR OBSTRUCTIONS TO VISIBILITY.

* - THESE STATIONS ARE NOT NWS STATIONS...THUS NOT UNDER NWS
QUALITY CONTROL.  THEY ALSO DO NOT REPORT WEATHER SUCH
AS PRECIPITATION OR FOG.

IAZ001>003-012>014-020>022-031>034-043>046-280000-
   NORTHWEST IOWA

CITY           SKY/WX    TMP DP  RH WIND       PRES   REMARKS
CARROLL *      SUNNY     82  68  61 SW7       29.93F HX  85
CHEROKEE *     SUNNY     84  69  60 NW8       29.94F HX  88
DENISON *      SUNNY     81  68  65 CALM      29.92F HX  83
LE MARS *      SUNNY     86  66  51 NW7       29.95F HX  88
SHELDON *      MOSUNNY   82  70  65 N9        29.95F HX  86
SIOUX CITY     PTSUNNY   89  65  44 N3        29.94F HX  91
SPENCER        PTSUNNY   82  69  64 N12       29.95F HX  85
STORM LAKE *   PTSUNNY   81  70  69 SW6       29.95F HX  84
$$

IAZ055>058-069>071-079>083-090>094-280000-
   SOUTHWEST IOWA

CITY           SKY/WX    TMP DP  RH WIND       PRES   REMARKS
ATLANTIC *     MOSUNNY   81  68  65 CALM      29.93F HX  83
CLARINDA *       N/A     82  75  78 MISG      29.94F HX  89
COUNCIL BLFS * SUNNY     82  70  65 CALM      29.94F HX  86
CRESTON *      CLOUDY    81  70  69 NW5       29.96S HX  84
HARLAN  *      SUNNY     81  66  61 CALM      29.97F HX  83
LAMONI         MOSUNNY   84  70  62 W6        29.93F HX  88
RED OAK *      MOSUNNY   82  72  69 CALM      29.93F HX  87
SHENANDOAH *   MOSUNNY   82  77  83 VRB5      29.92F HX  91
$$

IAZ047>049-059>061-072>074-084-280000-
   CENTRAL IOWA

CITY           SKY/WX    TMP DP  RH WIND       PRES   REMARKS
AMES           MOSUNNY   83  70  64 SW5       29.92F HX  87
ANKENY *         N/A    N/A N/A N/A MISG        N/A
BOONE *        SUNNY     82  70  65 W6        29.92F HX  86
CHARITON *       N/A    N/A N/A N/A MISG        N/A
DES MOINES     CLOUDY    86  68  54 VRB3      29.91F HX  89
GRINNELL*      CLOUDY    79  68  69 CALM      29.94F HX  82
KNOXVILLE *    PTSUNNY   82  68  61 N5        29.92F HX  85
MARSHALLTOWN   CLOUDY    81  68  64 SW6       29.92F HX  84
NEWTON *       CLOUDY    81  70  69 CALM      29.92F HX  84
PELLA *        MOSUNNY   80  70  70 CALM      29.93F HX  83
PERRY *        PTSUNNY   83  73  71 CALM      29.93F HX  89
$$

IAZ004>006-015-016-023>025-035-036-280000-
   NORTH CENTRAL IOWA

CITY           SKY/WX    TMP DP  RH WIND       PRES   REMARKS
ALGONA *       CLOUDY    75  68  78 SE22G29   29.93F
ESTHERVILLE    MOSUNNY   80  68  66 N10       29.94F HX  83
FORT DODGE *   MOSUNNY   82  70  65 SW8       29.94F HX  86
MASON CITY     MOSUNNY   79  66  64 SW8       29.95S HX  81
FOREST CITY *    N/A     77  68  73 S5        29.93S
IOWA FALLS *     N/A     82  68  62 S6        29.94F HX  85
$$

IAZ007>011-017>019-026>030-037>042-050>054-066-280000-
   NORTHEAST IOWA

CITY           SKY/WX    TMP DP  RH WIND       PRES   REMARKS
CEDAR RAPIDS   CLOUDY    81  73  76 W6        29.92F HX  86
CHARLES CITY * SUNNY     81  70  69 SW9       29.93F HX  84
CLINTON *      PTSUNNY   84  72  67 SW6       29.92F HX  89
DECORAH *      MOSUNNY   81  68  65 VRB5      29.92F HX  83
DUBUQUE        CLOUDY    80  67  64 CALM      29.95F HX  82
MONTICELLO *   CLOUDY    82  70  65 CALM      29.92F HX  86
OELWEIN *      PTSUNNY   81  70  69 SW6       29.93F HX  84
WATERLOO       PTSUNNY   81  66  60 SW6       29.91F HX  83
$$

IAZ064-065-067-068-078-280000-
   EAST CENTRAL IOWA

CITY           SKY/WX    TMP DP  RH WIND       PRES   REMARKS
DAVENPORT      MOSUNNY   84  69  60 VRB3      29.92F HX  88
IOWA CITY      CLOUDY    85  69  58 W7        29.93S HX  89
MT. PLEASANT * MOSUNNY   88  72  57 W5        29.92S HX  95
MUSCATINE *    MOSUNNY   86  70  58 SW5       29.92R HX  90
QUAD CITIES    MOSUNNY   86  69  56 SE6       29.90F HX  90
$$

IAZ062-063-075>077-085>089-095>099-280000-
   SOUTHEAST IOWA

CITY           SKY/WX    TMP DP  RH WIND       PRES   REMARKS
BURLINGTON     SUNNY     85  72  65 S5        29.90F HX  91
FAIRFIELD *    MOSUNNY   84  68  58 NW7       29.93S HX  87
KEOKUK *       MOSUNNY   86  70  58 SE3       29.89F HX  90
OSKALOOSA *      N/A     82  70  67 NE5       29.92F HX  86
OTTUMWA        MOSUNNY   85  66  53 CALM      29.91S HX  87
WASHINGTON *   PTSUNNY   82  70  65 NW7       29.95R HX  86
$$

ABBREVIATIONS USED IN REMARKS
   TC - TEMPERATURES IN CELSIUS
  WCI - WIND CHILL INDEX
   HX - HEAT INDEX
  VSB - VISIBILITY
$$




USA.gov is the U.S. government's official web portal to all federal, state and local government web resources and services.